Weather History for KPEQ - October, 2014

Change the Weather History Date:

Monday, October 20, 2014

  Actual Average Record
Temperature  
Mean Temperature 66 °F -  
Max Temperature 73 °F 78 °F 98 °F (2007)
Min Temperature 59 °F 45 °F 30 °F (1989)
Cooling Degree Days 1    
Growing Degree Days 16 (Base 50)    
Moisture  
Dew Point 58 °F    
Average Humidity 83    
Maximum Humidity 94    
Minimum Humidity 57    
Precipitation  
Precipitation 0.53 in - - ()
Sea Level Pressure  
Sea Level Pressure 30.05 in    
Wind  
Wind Speed 5 mph (NE)    
Max Wind Speed 20 mph    
Max Gust Speed 25 mph    
Visibility 8 miles    
Events Rain , Thunderstorm    
Averages and records for this station are not official NWS values.
T = Trace of Precipitation, MM = Missing Value Source: NWS Daily Summary

Daily Weather History Graph

Daily Weather History Graph

Search for Another Location

Airport or City:

Trip Planner

Search our weather history database for the weather conditions in past years. The results will help you decide how hot, cold, wet, or windy it might be!

Date:

Astronomy

Oct. 20, 2014 Rise Set
Actual Time 8:00 AM CDT 7:16 PM CDT
Civil Twilight 7:35 AM CDT 7:41 PM CDT
Nautical Twilight 7:07 AM CDT 8:09 PM CDT
Astronomical Twilight 6:39 AM CDT 8:37 PM CDT
Moon 5:02 AM CDT (10/20) 5:30 PM CDT (10/20)
Length of Visible Light 12h 05m
Length of Day
11h 15m
Waning Crescent, 10% of the Moon is Illuminated
Oct 20
Waning Crescent
Oct 23
New
Oct 30
First Quarter
Nov 6
Full
Nov 14
Last Quarter

Hourly Weather History & Observations

Time (CDT) Temp. Dew Point Humidity Pressure Visibility Wind Dir Wind Speed Gust Speed Precip Events Conditions
12:15 AM 63.7 °F 56.8 °F 78% 30.04 in 10.0 mi NE 8.1 mph - N/A   Clear
12:35 AM 62.8 °F 55.6 °F 77% 30.03 in 10.0 mi NE 9.2 mph - N/A   Clear
12:55 AM 62.4 °F 55.6 °F 78% 30.03 in 10.0 mi ENE 8.1 mph - N/A   Clear
1:15 AM 62.1 °F 55.9 °F 80% 30.02 in 10.0 mi NE 8.1 mph - N/A   Clear
1:35 AM 61.9 °F 56.3 °F 82% 30.02 in 10.0 mi ENE 8.1 mph - N/A   Clear
1:55 AM 61.3 °F 56.3 °F 83% 30.02 in 10.0 mi ENE 5.8 mph - N/A   Clear
2:15 AM 60.8 °F 56.3 °F 85% 30.02 in 10.0 mi ENE 6.9 mph - N/A   Clear
2:35 AM 60.8 °F 56.3 °F 85% 30.02 in 10.0 mi ENE 8.1 mph - N/A   Clear
2:55 AM 60.8 °F 56.5 °F 86% 30.02 in 10.0 mi ENE 6.9 mph - N/A   Clear
3:15 AM 61.0 °F 56.3 °F 85% 30.03 in 10.0 mi ENE 6.9 mph - N/A   Clear
3:35 AM 61.2 °F 56.3 °F 84% 30.03 in 10.0 mi ENE 9.2 mph - N/A   Clear
3:55 AM 61.2 °F 56.3 °F 84% 30.03 in 10.0 mi ENE 6.9 mph - N/A   Clear
4:15 AM 61.7 °F 56.5 °F 83% 30.03 in 10.0 mi ENE 5.8 mph - N/A   Clear
4:35 AM 61.3 °F 56.3 °F 83% 30.03 in 10.0 mi NE 5.8 mph - N/A   Clear
4:55 AM 61.3 °F 56.5 °F 84% 30.03 in 10.0 mi SE 3.5 mph - N/A   Clear
5:15 AM 60.3 °F 55.9 °F 86% 30.03 in 10.0 mi Calm Calm - N/A   Clear
5:35 AM 60.3 °F 55.9 °F 86% 30.04 in 10.0 mi Calm Calm - N/A   Clear
5:55 AM 60.1 °F 55.8 °F 86% 30.05 in 10.0 mi Calm Calm - N/A   Clear
6:15 AM 59.5 °F 55.8 °F 87% 30.05 in 10.0 mi Calm Calm - N/A   Clear
6:35 AM 59.5 °F 55.6 °F 87% 30.05 in 10.0 mi North 3.5 mph - N/A   Clear
6:55 AM 60.4 °F 56.3 °F 86% 30.06 in 10.0 mi North 3.5 mph - N/A   Clear
7:15 AM 59.9 °F 55.8 °F 86% 30.06 in 10.0 mi NNE 3.5 mph - N/A   Clear
7:35 AM 60.3 °F 56.3 °F 87% 30.06 in 10.0 mi NNE 3.5 mph - N/A   Clear
7:55 AM 60.1 °F 56.3 °F 87% 30.06 in 10.0 mi ENE 6.9 mph - N/A   Clear
8:15 AM 59.9 °F 56.3 °F 88% 30.06 in 10.0 mi NNE 3.5 mph - N/A   Clear
8:35 AM 60.4 °F 56.5 °F 87% 30.07 in 10.0 mi Calm Calm - N/A   Clear
8:55 AM 61.0 °F 56.8 °F 86% 30.07 in 10.0 mi Calm Calm - N/A   Clear
9:15 AM 61.2 °F 56.8 °F 86% 30.09 in 10.0 mi Calm Calm - N/A   Clear
9:35 AM 61.7 °F 57.2 °F 85% 30.09 in 10.0 mi NW 3.5 mph - N/A   Clear
9:55 AM 63.0 °F 57.7 °F 83% 30.09 in 10.0 mi North 5.8 mph - N/A   Clear
10:15 AM 64.0 °F 57.9 °F 80% 30.09 in 10.0 mi Calm Calm - N/A Thunderstorm Thunderstorm
10:35 AM 64.4 °F 58.1 °F 80% 30.09 in 10.0 mi Calm Calm - N/A   Clear
10:55 AM 65.3 °F 58.1 °F 77% 30.09 in 10.0 mi NNE 3.5 mph - N/A   Clear
11:15 AM 66.7 °F 58.3 °F 74% 30.10 in 10.0 mi Calm Calm - N/A   Scattered Clouds
11:35 AM 67.3 °F 58.3 °F 73% 30.09 in 10.0 mi NNE 3.5 mph - N/A   Scattered Clouds
11:55 AM 69.1 °F 58.3 °F 68% 30.09 in 10.0 mi NNE 3.5 mph - N/A   Scattered Clouds
12:15 PM 69.1 °F 58.1 °F 68% 30.09 in 10.0 mi NE 3.5 mph - N/A   Scattered Clouds
12:35 PM 70.0 °F 58.1 °F 66% 30.09 in 10.0 mi NNW 4.6 mph - N/A   Mostly Cloudy
12:55 PM 70.0 °F 58.1 °F 66% 30.09 in 10.0 mi NE 3.5 mph - N/A   Mostly Cloudy
1:15 PM 70.0 °F 57.7 °F 65% 30.08 in 10.0 mi Calm Calm - N/A   Overcast
1:35 PM 69.8 °F 57.7 °F 65% 30.08 in 10.0 mi WNW 3.5 mph - N/A   Overcast
1:55 PM 70.3 °F 57.7 °F 64% 30.07 in 10.0 mi Calm Calm - N/A   Mostly Cloudy
2:15 PM 70.9 °F 58.1 °F 64% 30.04 in 10.0 mi West 5.8 mph - N/A   Mostly Cloudy
2:35 PM 71.6 °F 57.9 °F 62% 30.04 in 10.0 mi Calm Calm - N/A   Scattered Clouds
2:55 PM 72.5 °F 57.9 °F 60% 30.03 in 10.0 mi WSW 3.5 mph - N/A Thunderstorm Clear
3:15 PM 73.2 °F 58.1 °F 59% 30.02 in 10.0 mi West 4.6 mph - N/A Thunderstorm Clear
3:35 PM 72.9 °F 57.2 °F 58% 30.02 in 10.0 mi Calm Calm - N/A   Clear
3:55 PM 73.0 °F 57.0 °F 57% 30.02 in 10.0 mi NNW 4.6 mph - N/A Thunderstorm Scattered Clouds
4:15 PM 68.7 °F 54.5 °F 60% 30.03 in 10.0 mi ENE 19.6 mph 25.3 mph N/A Thunderstorm Mostly Cloudy
4:35 PM 63.9 °F 59.5 °F 86% 30.04 in 5.0 mi ESE 18.4 mph 21.9 mph 0.04 in Rain , Thunderstorm Light Thunderstorms and Rain
4:55 PM 62.8 °F 60.1 °F 91% 30.04 in 5.0 mi ENE 12.7 mph - 0.07 in Rain Light Rain
5:15 PM 62.8 °F 60.4 °F 92% 30.04 in 1.5 mi ENE 15.0 mph - 0.18 in Rain , Thunderstorm Heavy Thunderstorms and Rain
5:35 PM 61.0 °F 57.7 °F 89% 30.04 in 3.0 mi East 3.5 mph - 0.26 in Rain Rain
5:55 PM 62.8 °F 60.6 °F 93% 30.03 in 1.8 mi ENE 4.6 mph - 0.41 in Rain Light Rain
6:15 PM 63.7 °F 61.3 °F 92% 30.03 in 5.0 mi East 4.6 mph - 0.01 in   Light Drizzle
6:35 PM 64.2 °F 61.7 °F 91% 30.03 in 3.0 mi ESE 3.5 mph - 0.04 in   Drizzle
6:55 PM 64.6 °F 62.1 °F 92% 30.04 in 4.0 mi Calm Calm - 0.05 in   Light Drizzle
7:15 PM 64.6 °F 62.1 °F 92% 30.03 in 5.0 mi Calm Calm - N/A Rain Light Rain
7:35 PM 64.4 °F 62.2 °F 93% 30.05 in 7.0 mi Calm Calm - N/A   Overcast
7:55 PM 64.4 °F 62.2 °F 93% 30.05 in 7.0 mi Calm Calm - N/A   Mostly Cloudy
8:15 PM 64.6 °F 62.6 °F 93% 30.05 in 7.0 mi Calm Calm - N/A Thunderstorm Mostly Cloudy
8:35 PM 64.4 °F 62.2 °F 93% 30.05 in 5.0 mi Calm Calm - N/A   Overcast
8:55 PM 64.0 °F 62.2 °F 94% 30.05 in 5.0 mi Calm Calm - N/A   Scattered Clouds
9:15 PM 64.0 °F 62.2 °F 94% 30.06 in 5.0 mi Calm Calm - N/A   Mostly Cloudy
9:35 PM 63.9 °F 62.1 °F 94% 30.06 in 5.0 mi SSE 3.5 mph - N/A   Overcast
9:55 PM 63.9 °F 62.2 °F 94% 30.07 in 5.0 mi Calm Calm - N/A   Overcast
10:15 PM 63.9 °F 62.2 °F 94% 30.07 in 5.0 mi ENE 5.8 mph - N/A   Mostly Cloudy
10:35 PM 63.7 °F 61.9 °F 94% 30.06 in 4.0 mi NNE 4.6 mph - N/A   Mostly Cloudy
10:55 PM 63.9 °F 62.2 °F 94% 30.07 in 5.0 mi Calm Calm - N/A   Light Drizzle
11:15 PM 64.4 °F 62.6 °F 94% 30.07 in 5.0 mi Calm Calm - N/A   Overcast
11:35 PM 64.0 °F 62.2 °F 94% 30.07 in 4.0 mi Calm Calm - N/A   Mostly Cloudy
11:55 PM 63.7 °F 61.9 °F 94% 30.07 in 3.0 mi Calm Calm - N/A   Scattered Clouds